Retour au catalogue

STARLINK-33733

ActifCommunicationsVLEO
NORAD 63435·PAYLOAD·🇺🇸 United States

Lancé Apr 4, 2025 depuis Vandenberg Space Force Base

Loading…

Prochains Passages (prochaines 24 heures)

TLE

FraisSource: CelesTrak SupGP

Époque: Sep 15, 2026, 02:25 UTC

1 63435C 25069C   26258.10118056  .00069703  00000+0  20594-2 0  2582
2 63435  53.1589 334.8624 0001191  84.0143 305.7814 15.34356302    17

Suivez STARLINK-33733 en temps réel avec AllMySat

Download on the App Store